TimeEST,TemperatureF,Dew PointF,Humidity,Sea Level PressureIn,VisibilityMPH,Wind Direction,Wind SpeedMPH,Gust SpeedMPH,PrecipitationIn,Events,Conditions,WindDirDegrees,DateUTC
12:53 AM,48.9,46.0,90,30.27,10.0,Calm,Calm,-,N/A,,Clear,0,2012-11-10 05:53:00
1:53 AM,48.0,46.0,93,30.27,10.0,Calm,Calm,-,N/A,,Clear,0,2012-11-10 06:53:00
2:53 AM,46.9,45.0,93,30.27,10.0,Calm,Calm,-,N/A,,Clear,0,2012-11-10 07:53:00
3:53 AM,48.0,45.0,89,30.27,10.0,Calm,Calm,-,N/A,,Clear,0,2012-11-10 08:53:00
4:53 AM,46.9,44.1,90,30.27,10.0,Calm,Calm,-,N/A,,Clear,0,2012-11-10 09:53:00
5:53 AM,46.9,46.0,97,30.29,10.0,Calm,Calm,-,N/A,,Clear,0,2012-11-10 10:53:00
6:53 AM,46.9,46.0,97,30.30,9.0,Calm,Calm,-,N/A,,Clear,0,2012-11-10 11:53:00
7:53 AM,53.1,48.0,83,30.32,10.0,Calm,Calm,-,N/A,,Clear,0,2012-11-10 12:53:00
8:53 AM,61.0,48.0,62,30.34,10.0,NE,6.9,-,N/A,,Clear,40,2012-11-10 13:53:00
9:53 AM,68.0,48.0,49,30.35,10.0,NNE,4.6,-,N/A,,Clear,20,2012-11-10 14:53:00
10:53 AM,73.0,46.9,39,30.34,10.0,NNE,5.8,-,N/A,,Clear,20,2012-11-10 15:53:00
11:53 AM,73.9,48.9,41,30.32,10.0,ENE,9.2,-,N/A,,Clear,60,2012-11-10 16:53:00
12:53 PM,75.9,48.9,38,30.29,10.0,NE,6.9,-,N/A,,Clear,50,2012-11-10 17:53:00
1:53 PM,75.0,50.0,41,30.27,10.0,ENE,11.5,16.1,N/A,,Partly Cloudy,70,2012-11-10 18:53:00
2:53 PM,75.0,51.1,43,30.26,10.0,East,8.1,-,N/A,,Partly Cloudy,90,2012-11-10 19:53:00
3:53 PM,73.9,52.0,46,30.27,10.0,ENE,12.7,17.3,N/A,,Mostly Cloudy,60,2012-11-10 20:53:00
4:53 PM,71.1,54.0,55,30.27,10.0,East,8.1,-,N/A,,Overcast,80,2012-11-10 21:53:00
5:53 PM,69.1,55.0,61,30.28,10.0,East,5.8,-,N/A,,Mostly Cloudy,80,2012-11-10 22:53:00
6:53 PM,64.9,55.0,70,30.30,10.0,ENE,4.6,-,N/A,,Partly Cloudy,70,2012-11-10 23:53:00
7:53 PM,64.9,55.0,70,30.31,10.0,NE,4.6,-,N/A,,Overcast,40,2012-11-11 00:53:00
8:53 PM,63.0,55.0,75,30.32,10.0,NE,5.8,-,N/A,,Scattered Clouds,50,2012-11-11 01:53:00
9:53 PM,60.1,55.0,83,30.32,10.0,NE,5.8,-,N/A,,Clear,50,2012-11-11 02:53:00